Regional Weather Roundup
Issued by NWS

Home | Current Version | Previous Version | Graphics & Text | Print | Product List | Glossary On
Versions: 1 2 3 4 5 6 7 8 9 10 11 12 13 14 15 16 17 18 19 20 21 22 23 24 25 26 27 28 29 30 31 32 33 34 35 36 37 38 39 40 41 42 43 44 45 46 47 48 49 50
212
ASUS43 KMKX 221021
RWRWI

WISCONSIN REGIONAL WEATHER ROUNDUP
NATIONAL WEATHER SERVICE MILWAUKEE/SULLIVAN WI
400 AM CST WED FEB 22 2017

NOTE: "FAIR" INDICATES FEW OR NO CLOUDS BELOW 12,000 FEET WITH NO
SIGNIFICANT WEATHER AND/OR OBSTRUCTIONS TO VISIBILITY.

WIZ001-002-006>008-014>016-023>028-221100-
NORTHWEST WISCONSIN

CITY           SKY/WX    TMP DP  RH WIND       PRES   REMARKS
SUPERIOR ARPT  CLOUDY    30  30 100 NE5       29.64S FOG     WCI  25
ASHLAND        CLOUDY    36  35  96 SW5       29.64S WCI  32
HAYWARD        CLOUDY    32  30  92 N5        29.64S WCI  27
SIREN          CLOUDY    32  32  99 CALM      29.63F FOG
CUMBERLAND     FOG       32  32 100 CALM      29.64R VSB 1/2
RICE LAKE      CLOUDY    33  33  98 CALM      29.66R FOG
CHETEK         CLOUDY    34  34  99 CALM      29.64S
LADYSMITH      CLOUDY    35  33  92 CALM      29.66F
EAU CLAIRE     PTCLDY    34  33  96 W3        29.64F
MENOMONIE      MOCLDY    35  34  95 CALM      29.65R
NEW RICHMOND   FOG       37  37 100 CALM      29.64S VSB 3/4
OSCEOLA        FOG       34  34 100 CALM      29.65F VSB 1/4
$$

WIZ003>005-009-010-017-018-221100-
NORTH CENTRAL WISCONSIN

CITY           SKY/WX    TMP DP  RH WIND       PRES   REMARKS
MANITOWISH WTR PTCLDY    37  36  99 CALM      29.63F
ARBOR VITAE    CLOUDY    39  34  82 CALM        N/A
WOODRUFF       CLOUDY    39  34  82 CALM        N/A
RHINELANDER    CLOUDY    41  35  79 SW7       29.66F
EAGLE RIVER    CLEAR     40  32  73 CALM      29.64S
LAND O LAKES   MOCLDY    38  32  81 CALM      29.65F
PHILLIPS       CLOUDY    34  33  96 CALM      29.64F
TOMAHAWK       PTCLDY    33  31  92 CALM      29.66F
MEDFORD        PTCLDY    39  35  84 S5        29.66S
MERRILL        NOT AVBL
$$

WIZ029-030-035-036-043>047-221100-
CENTRAL WISCONSIN

CITY           SKY/WX    TMP DP  RH WIND       PRES   REMARKS
WAUSAU         PTCLDY    43  35  73 S6        29.66F
MOSINEE        PTCLDY    36  34  93 S5        29.69S WCI  32
MARSHFIELD     PTCLDY    39  34  82 SW6       29.66F WCI  35
STEVENS POINT  PTCLDY    32  32  99 CALM      29.69F
WAUPACA        CLEAR     39  34  81 CALM      29.71F
WAUTOMA        CLEAR     32  29  88 CALM      29.71F
WISC RAPIDS    PTCLDY    35  34  96 SW3       29.70F
CAMP DOUGLAS   CLEAR     48  39  69 S3        29.69F
$$

WIZ011>013-019>022-031-037>040-048>050-221100-
NORTHEAST WISCONSIN

CITY           SKY/WX    TMP DP  RH WIND       PRES   REMARKS
ANTIGO         PTCLDY    40  34  80 SW6       29.68S
SHAWANO        MOCLDY    40  34  79 CALM      29.69F
OCONTO         CLOUDY    32  31  96 CALM      29.70F
STURGEON BAY   PTCLDY    37  35  92 SE3       29.72F
GREEN BAY      CLEAR     42  38  85 S3        29.72S
MANITOWOC      CLEAR     35  34  96 CALM      29.74S FOG
APPLETON       CLEAR     37  34  87 S6        29.69F WCI  33
CLINTONVILLE   PTCLDY    36  32  87 CALM      29.69F
OSHKOSH        CLEAR     45  39  79 S12       29.70F
$$

WIZ032>034-041-042-053>061-221100-
SOUTHWEST WISCONSIN

CITY           SKY/WX    TMP DP  RH WIND       PRES   REMARKS
LA CROSSE      CLEAR     46  36  68 S8        29.68F
SPARTA         CLEAR     34  33  94 CALM      29.69F
VIROQUA        CLEAR     47  37  67 S9        29.70F
BOSCOBEL       CLEAR     34  31  88 CALM      29.73F
PRAIRIE DU CHI CLEAR     46  39  74 S3        29.72S
PLATTEVILLE    CLEAR     44  44 100 S9        29.74F
$$

WIZ056-057-062-063-064-067-068-221100-
SOUTH CENTRAL WISCONSIN

CITY           SKY/WX    TMP DP  RH WIND       PRES   REMARKS
REEDSBURG      CLEAR     49  47  93 CALM      29.72S
BARABOO/DELLS  CLEAR     52  46  79 SW12      29.71F
LONE ROCK      CLEAR     44  41  89 CALM      29.73F
MINERAL POINT  CLEAR     45  45 100 SE7       29.74F FOG
MADISON        CLEAR     44  41  89 S6        29.74F
MIDDLETON      CLEAR     53  49  84 SW9G17    29.74F
WATERTOWN      CLEAR     42  42 100 S5        29.75F
MONROE         SNOW      46  46 100 SW15      29.76F VSB 1/4
JANESVILLE     FOG       50  50 100 SW6       29.77F VSB 1/4
$$

WIZ051-052-058>065-066-070>072-221100-
SOUTHEAST WISCONSIN

CITY           SKY/WX    TMP DP  RH WIND       PRES   REMARKS
MILWAUKEE      FOG       40  39  97 CALM      29.78S VSB 1/4
WAUKESHA       PTCLDY    45  45 100 S3        29.78S FOG
MILWAUKEE/TIMM CLEAR     48  45  87 SW6       29.77F FOG
RACINE         FOG       49  47  93 SW7       29.80S VSB 3/4
KENOSHA        FOG       49  48  97 SW6       29.79S VSB<1/4
FOND DU LAC    CLEAR     49  41  74 SW12      29.72F
SHEBOYGAN      CLEAR     38  35  89 S6        29.73F WCI  33
WEST BEND      CLEAR     50  46  87 SW7       29.75F
JUNEAU         CLEAR     43  41  93 S6        29.75F
$$

LSZ147-162-221100-
LAKE SUPERIOR

STATION/POSITION TIME  TEMP    WIND        PRES    WAVE
                       AIR SEA DIR/SP/G            HT/PER
                 (UTC) (F)     (DEG/KT/KT) (MB)    (FT/S)
DEVILS ISLAND    1000   34     300/ 10/ 11 1004.6R
PORT WING        0940   31      CALM  /  1 1004.4R
SAXON HARBOR     0940   35     200/  4/  5 1003.4R
$$

LMZ867-665-643>646-221100-
LAKE MICHIGAN

STATION/POSITION TIME  TEMP    WIND        PRES    WAVE
                       AIR SEA DIR/SP/G            HT/PER
                 (UTC) (F)     (DEG/KT/KT) (MB)    (FT/S)
CHAMBERS ISLAND  0940   46     180/  5/ 10 1005.8S
NORTHPORT PIER   0940   39     160/  4/  7 1006.1F
SISTER BAY       0905   42     140/  9/ 11   N/A
ALGOMA LAKESHORE 0910          210/  8/ 10   N/A
KEWAUNEE LAKESHO 0954   37      CALM  /  2 1006.1F
SHEBOYGAN LAKESH 1000   41     180/ 12/ 13 1007.3F
PORT WASHINGTON  0930   40     210/  4/  5 1008.8F
MILWAUKEE LAKESH 1000   44     180/  6/  7   N/A
KENOSHA   LAKESH 1000   41     180/  8/ 10 1009.1
$$

TC  - TEMPERATURE IN CELSIUS
VSB - VISIBILITY IN STATUTE MILES
WCI - WIND CHILL INDEX
HX  - HEAT INDEX





USA.gov is the U.S. government's official web portal to all federal, state and local government web resources and services.